Regional Weather Roundup
Issued by NWS

Home | Current Version | Previous Version | Text Only | Print | Product List | Glossary Off
Versions: 1 2 3 4 5 6 7 8 9 10 11 12 13 14 15 16 17 18 19 20 21 22 23 24 25 26 27 28 29 30 31 32 33 34 35 36 37 38 39 40 41 42 43 44 45 46 47 48 49 50

000
ASUS45 KABQ 282001
RWRNM
NEW MEXICO REGIONAL WEATHER ROUNDUP
NATIONAL WEATHER SERVICE ALBUQUERQUE NM
200 PM MDT FRI APR 28 2017

NOTE: "FAIR" MEANS FEW OR NO CLOUDS BELOW 12,000 FEET AGL WITH NO
       SIGNIFICANT WEATHER OR OBSTRUCTIONS TO VISION.

      THIS PRODUCT IS RELEASED AS TWO VERSIONS.  ONE VERSION NEAR
      THE TOP OF THE HOUR CONTAINING PRELIMINARY DATA FROM ALBUQUERQUE
      AND OTHER STATIONS.  A FINAL VERSION WITH ADDITIONAL DATA IS
      ISSUED ABOUT 10 MINUTES AFTER THE HOUR.

NMZ501-503-504-510>518-282100-
NORTHWEST PLATEAU/NORTHCENTRAL MOUNTAINS

CITY           SKY/WX    TMP DP  RH WIND       PRES   REMARKS
FARMINGTON     LGT SNOW  33  31  92 E7        29.75R VSB 1   WCI  27
LOS ALAMOS     LGT SNOW  32  32 100 CALM      29.77F
SANTA FE       SNOW      33  33 100 SE5       29.76F VSB 1/2 WCI  29
TAOS             N/A     36  28  75 SE6       29.75F WCI  31
ANGEL FIRE     LGT SNOW  31  29  90 S9        29.77S WCI  23

$$
NMZ402-403-502-505>509-282100-
WESTCENTRAL MOUNTAINS/SOUTHWEST MOUNTAINS

CITY           SKY/WX    TMP DP  RH WIND       PRES   REMARKS
GALLUP         CLOUDY    45  24  43 W24G30    29.77F
GRANTS         LGT RAIN  40  33  76 W16G23    29.79F WCI  32
SILVER CITY    FAIR      68  37  31 W17G23    29.72S

$$
NMZ407-409-411-412-282100-
SOUTHERN DESERTS

CITY           SKY/WX    TMP DP  RH WIND       PRES   REMARKS
DEMING         FAIR      78  36  21 W25G33    29.65F
LAS CRUCES     FAIR      80  33  18 W32G39    29.66F
HOLLOMAN AFB   FAIR      78  36  21 SW20G32   29.66F
ALAMOGORDO     FAIR      77  36  22 SW18G28   29.65F
T OR C         FAIR      76  33  21 W17G24    29.62F

$$
NMZ519>523-282100-
CENTRAL VALLEYS/CENTRAL HIGHLANDS

CITY           SKY/WX    TMP DP  RH WIND       PRES   REMARKS
ALBUQUERQUE    LGT RAIN  41  37  86 NE8       29.79S
DOUBLE EAGLE   RAIN      37  36  93 E7        29.79F WCI  32
MORIARTY ARPT  CLOUDY    41  39  92 N14       29.78F
CLINES CORNERS LGT RAIN  36  33  89 NW21G33   29.75F WCI  25
BELEN          CLOUDY    44  38  79 NE9       29.80R
SOCORRO        FAIR      52  37  55 N22G30    29.74S

$$
NMZ524>526-539-540-282100-
SOUTHCENTRAL MOUNTAINS

CITY           SKY/WX    TMP DP  RH WIND       PRES   REMARKS
RUIDOSO        NOT AVBL

$$
NMZ527>531-282100-
NORTHEAST HIGHLANDS/NORTHEAST PLAINS

CITY           SKY/WX    TMP DP  RH WIND       PRES   REMARKS
LAS VEGAS      SNOW      32  31  96 CALM      29.78R VSB 1/4
RATON          RAIN      36  32  85 SW13      29.74R FOG     WCI  27
CLAYTON        RAIN      43  39  86 W9        29.76R FOG

$$
NMZ532>537-282100-
EASTCENTRAL PLAINS

CITY           SKY/WX    TMP DP  RH WIND       PRES   REMARKS
SANTA ROSA     DRIZZLE   52  36  54 NW21G30   29.70R
TUCUMCARI      CLOUDY    64  32  30 N24G30    29.61F
CANNON AFB     CLOUDY    73  35  24 S24G30    29.60F
CLOVIS AIRPORT PTSUNNY   73  37  27 S21G28    29.61F

$$
NMZ028-029-538-282100-
SOUTHEAST PLAINS

CITY           SKY/WX    TMP DP  RH WIND       PRES   REMARKS
ROSWELL        PTSUNNY   83  32  16 W25G37      N/A
ARTESIA        FAIR      84  37  18 SW29G37   29.57S
CARLSBAD       FAIR      86  34  15 SW16G22   29.55F
HOBBS          SUNNY     81  32  17 S20G32    29.62F


$$




USA.gov is the U.S. government's official web portal to all federal, state and local government web resources and services.